Search for airport 
image banner adimage banner ad
image banner ad

DAUA - Adrar / Touat Cheikh Sidi Mohamed Belkebir

Located in Adrar, Algeria

ICAO - DAUA, IATA - AZR

Data provided by Airmate  

General information

Coordinates: N27°50'21" W0°11'7"
Elevation is 918 feet MSL.
 
View others Airports in Adrar Province

Operational data

Open for public use
Current time UTC:
Current local time:
Weather
METAR: DAUA 222300Z 01006KT CAVOK 26/05 Q1018
TAF: TAF DAUA 221700Z 2218/2318 32006KT CAVOK
View NOTAMs / SUP AIP / TFR affecting this airport [VIEW]
Communications frequencies: [VIEW]

Runways:

RWY identifierQFULength (ft)Width (ft)SurfaceLDA (ft)
0440°9843148ASP
22220°9843148

Airport contact information

Address: Adrar Algeria

Satellite view of DAUA